Theta_e
302 296 293 296 297 297 297 294 293 296 296 297 296 297 299 302 302 302 303 305 306 306 309 311 310 312 317 325 328 330 332 335 337 332 331 331 330 332 333 334 333 333 332 331
297 293 298 299 295 295 296 294 293 294 296 296 296 295 299 301 301 303 303 304 306 307 308 308 308 310 310 311 319 325 328 331 335 334 332 332 331 331 333 333 333 332 331 330
293 295 298 296 294 293 294 293 293 292 294 295 294 293 296 300 301 302 303 304 305 305 305 307 307 307 309 309 310 312 319 326 331 335 332 331 331 331 330 331 331 331 329 329
295 295 295 294 293 295 290 295 294 292 292 288 294 287 295 298 298 298 301 302 302 304 304 303 303 305 309 310 310 308 310 315 323 331 334 330 328 326 329 330 330 330 329 328
292 292 293 293 294 296 292 295 294 293 291 291 291 288 293 296 295 298 300 301 302 303 303 304 305 306 308 310 311 309 307 309 316 323 330 331 327 328 330 330 329 329 328 328
293 296 296 295 295 296 295 294 293 293 292 285 290 290 290 294 295 297 299 300 302 303 303 304 306 307 308 311 312 315 307 306 312 318 323 327 328 329 328 329 328 328 327 327
291 292 294 296 292 295 294 291 285 283 283 283 288 287 291 296 295 298 298 300 303 303 304 305 305 306 306 307 310 311 315 313 310 315 319 323 325 326 323 323 324 324 326 323
286 284 291 295 294 291 292 292 287 281 281 284 285 284 290 297 298 297 298 300 303 303 303 303 304 305 305 306 308 309 311 315 318 316 317 320 323 323 322 320 322 322 325 324
286 286 293 294 294 295 291 287 292 285 281 285 287 290 295 297 296 296 297 300 302 301 302 302 302 303 304 305 305 307 307 308 312 317 315 316 317 318 318 318 317 317 316 315
291 284 290 291 294 293 292 294 286 288 282 281 285 286 288 291 294 296 297 300 299 300 300 300 301 301 302 303 304 305 305 305 307 308 308 309 309 311 313 314 315 314 315 316
292 291 286 290 289 289 289 288 289 289 289 285 282 286 293 295 297 296 298 300 299 300 300 299 300 300 301 301 301 301 302 302 303 304 304 304 304 305 306 306 306 306 307 307
293 290 285 287 290 292 293 291 290 286 283 286 285 287 294 294 298 299 298 299 300 300 300 300 300 300 299 299 298 298 298 298 299 300 300 300 300 301 301 300 301 302 302 304
292 290 282 284 288 290 288 290 292 292 290 286 285 287 293 295 298 299 298 298 298 299 299 299 298 298 298 297 297 297 297 296 297 298 297 297 296 296 296 296 296 297 297 298
295 292 287 283 286 289 286 289 289 290 286 286 286 289 291 294 296 297 298 298 299 298 298 298 297 297 297 296 296 295 295 295 296 296 295 294 294 294 294 294 294 294 294 294
294 286 289 289 289 290 290 289 288 287 289 286 288 289 293 295 296 298 299 299 297 297 296 297 296 296 295 294 294 294 294 294 295 294 293 292 293 293 293 292 292 292 291 292
293 285 287 284 288 288 287 290 290 289 289 290 290 290 295 297 299 299 298 298 296 296 296 296 295 293 293 293 293 293 293 292 294 292 291 291 291 290 290 290 289 290 290 290
290 286 285 283 286 286 283 286 289 290 291 291 287 292 295 294 295 297 298 298 296 296 296 294 293 292 293 292 292 291 291 292 291 290 288 288 288 287 288 288 288 288 288 289
288 286 286 282 284 277 288 289 292 290 292 293 292 294 296 296 297 298 300 298 297 296 294 293 292 292 292 292 291 291 291 290 289 287 287 286 286 286 287 286 286 287 287 287
291 287 282 280 282 286 287 286 289 288 289 294 292 294 295 295 294 293 297 300 298 296 294 293 293 292 292 291 290 289 289 289 287 286 286 285 285 284 284 283 285 286 285 285
291 290 286 282 280 279 286 289 293 293 285 293 295 294 295 292 289 294 294 295 294 293 292 291 292 291 291 289 288 288 287 287 285 285 284 285 284 283 282 284 284 285 284 284
283 284 282 282 281 285 290 288 294 283 287 286 292 295 294 291 295 293 293 291 291 291 291 291 291 288 287 286 287 286 286 284 284 284 284 284 283 282 283 283 284 283 283 283
283 282 282 284 280 278 289 289 286 290 289 290 292 294 292 293 291 290 290 289 289 289 289 289 286 285 285 285 285 285 283 283 282 280 281 280 280 281 282 281 282 283 283 283
282 287 285 285 286 289 291 291 292 291 291 290 292 292 293 290 289 289 288 288 288 288 286 285 285 283 283 282 281 281 279 279 276 274 274 277 278 279 280 280 280 281 283 283
285 284 286 287 289 287 289 290 290 291 291 291 291 292 292 289 289 287 287 285 285 284 283 282 282 282 280 278 277 276 276 274 270 272 274 276 277 278 279 281 281 282 281 281
285 284 285 284 285 286 288 290 292 290 289 288 289 290 291 288 286 286 285 284 284 282 280 280 280 279 277 276 274 272 271 269 270 271 273 275 277 277 277 278 279 280 281 281
284 284 283 284 288 288 290 291 291 290 288 287 286 285 287 287 286 285 284 283 281 279 278 277 276 275 274 272 270 269 265 265 265 269 273 273 272 274 275 276 277 281 283 283
Wind_Speed
11 11 17 16 15 4 13 15 11 8 4 8 11 14 15 12 10 11 10 10 10 10 9 7 7 9 11 13 14 15 15 16 12 9 8 8 9 7 7 7 10 10 7 12
9 16 15 6 6 5 7 14 11 5 4 4 3 12 13 13 14 14 13 12 12 10 8 8 8 8 10 11 13 14 15 16 14 10 8 8 7 7 7 7 8 9 11 10
12 8 11 9 10 9 7 12 10 1 5 1 5 13 14 12 14 11 10 10 8 7 9 7 6 7 7 9 10 11 13 14 14 14 8 5 3 4 4 6 6 9 10 11
8 5 12 12 15 13 9 3 7 9 6 4 2 6 4 8 9 8 8 7 6 4 4 3 3 4 1 4 5 7 9 12 12 13 11 13 8 9 7 7 6 7 10 10
7 10 14 14 14 10 4 5 6 5 4 3 7 6 6 4 7 10 5 4 2 2 1 4 5 3 4 4 3 3 5 9 11 11 12 10 9 7 9 8 9 10 8 10
5 2 5 4 7 4 13 11 8 5 3 6 11 9 6 8 4 11 9 6 5 4 5 5 6 5 6 6 5 4 1 4 7 9 10 12 10 10 7 6 2 5 5 7
5 6 3 6 10 7 7 14 4 5 5 6 3 5 10 1 4 6 10 7 7 5 5 5 6 6 6 7 7 6 5 4 3 6 7 9 10 9 8 3 2 3 3 3
13 8 11 9 5 10 14 15 5 7 6 4 3 8 5 1 5 4 1 5 7 7 6 6 6 6 7 8 8 8 8 7 6 3 1 1 3 3 3 4 3 3 3 1
12 7 3 1 0 12 8 8 3 6 2 1 7 6 8 8 6 6 7 8 8 6 6 6 7 7 7 8 9 9 9 9 9 8 5 4 4 3 2 3 2 1 2 2
5 6 1 3 2 1 6 12 5 4 5 5 5 7 8 6 10 10 10 10 8 7 6 6 7 7 7 7 8 9 10 10 9 9 8 7 7 6 5 4 4 3 3 2
7 3 4 5 11 14 6 6 4 3 3 4 3 5 3 2 10 11 11 10 10 9 8 7 6 7 7 7 8 9 10 10 10 9 8 8 8 8 8 7 7 8 6 7
1 6 5 11 4 4 6 11 12 6 6 5 3 4 2 1 6 11 12 11 10 9 9 8 7 7 7 7 8 9 8 9 8 8 8 9 9 9 9 8 9 8 8 7
9 5 5 2 1 2 9 9 15 9 3 6 6 5 2 5 8 11 13 12 11 11 10 9 7 7 7 6 6 8 8 8 7 7 8 9 9 9 9 9 8 8 8 7
4 3 10 16 7 11 10 15 10 12 5 12 11 13 6 9 12 11 11 12 12 10 9 8 7 7 6 5 7 8 8 7 7 8 9 9 8 8 8 8 8 7 6 6
4 7 3 2 3 2 6 15 16 17 23 14 22 17 13 13 14 15 12 11 12 11 10 9 8 7 7 6 7 7 7 6 6 7 8 8 7 7 7 7 6 5 4 4
4 4 4 2 4 4 1 8 18 22 23 21 18 14 4 9 11 11 12 13 13 12 11 9 8 8 7 6 6 6 6 6 6 7 7 6 6 5 4 4 5 5 5 5
9 7 4 7 4 2 5 17 16 15 17 18 20 21 10 7 11 11 13 14 12 11 11 11 10 8 7 6 5 5 5 5 6 6 6 7 5 5 5 6 6 6 6 6
6 6 2 5 6 8 6 3 13 17 10 16 15 1 2 8 10 4 5 11 12 12 12 11 9 9 7 6 6 5 5 5 5 5 5 5 5 5 6 7 6 6 6 7
4 4 4 5 8 5 7 6 8 12 13 17 17 11 6 4 5 3 3 7 10 11 10 9 8 8 7 6 5 4 4 4 5 5 4 4 4 5 6 6 6 6 6 7
7 3 2 4 5 10 3 3 3 4 10 8 16 17 14 11 8 5 10 9 12 12 11 10 9 8 7 5 3 5 5 5 5 4 4 4 5 4 6 7 7 5 6 7
6 4 8 6 4 5 3 7 6 7 2 2 2 1 10 8 2 12 14 13 12 11 12 10 8 7 6 4 3 5 4 5 4 3 4 4 4 5 6 6 6 6 7 8
8 9 6 5 7 12 7 5 8 2 2 2 2 3 7 8 10 13 13 13 13 13 10 8 8 6 5 5 3 4 5 4 4 5 5 4 3 4 5 6 7 7 7 10
8 5 5 9 6 3 9 4 4 1 1 2 3 4 10 12 12 13 14 12 11 11 8 5 7 7 5 5 4 4 3 5 5 4 4 5 6 5 5 6 7 7 7 8
4 1 2 2 3 3 4 4 2 2 1 2 1 6 11 14 14 12 11 9 8 7 7 5 6 5 5 4 4 3 4 5 3 5 6 6 6 7 6 5 6 6 7 7
3 10 5 5 2 1 7 7 2 4 3 4 5 6 11 14 12 12 10 9 8 7 5 4 4 4 4 2 3 3 4 5 5 5 6 6 6 6 8 7 7 7 8 8
6 5 7 5 4 1 1 7 9 8 8 8 8 6 5 10 13 11 9 8 8 8 5 4 4 4 3 1 2 3 3 3 3 5 5 5 6 6 7 7 8 12 17 18
Wind_Direction
194 200 206 189 213 244 212 209 207 196 103 223 224 250 252 245 225 247 243 235 224 219 207 198 200 210 220 221 219 221 214 215 207 200 202 205 206 207 217 206 205 210 216 213
175 217 202 149 104 165 195 204 191 120 132 224 242 262 260 251 245 240 244 237 231 225 214 191 207 203 208 223 225 226 225 219 212 202 206 211 208 215 217 211 213 208 206 212
196 195 132 158 173 166 186 199 169 193 145 162 291 266 241 236 248 251 252 257 268 258 253 248 210 226 230 227 230 227 232 230 222 213 186 198 222 205 198 216 211 208 207 210
229 138 175 187 190 191 188 138 136 137 172 234 226 269 164 210 227 202 209 207 217 225 233 247 243 216 289 301 296 260 247 237 232 221 207 188 208 219 210 215 203 204 206 213
153 166 175 185 186 190 155 160 156 148 193 293 187 254 238 122 247 216 157 146 110 60 52 100 95 86 50 22 348 275 255 244 230 226 218 222 198 226 231 214 195 196 199 203
93 343 195 170 84 212 137 121 108 128 189 245 229 224 242 219 232 135 144 122 118 101 110 103 88 74 57 46 40 35 155 220 228 226 226 230 235 222 236 237 229 186 187 200
134 154 119 158 107 135 189 167 154 191 195 238 63 204 251 142 150 173 150 125 111 121 110 87 71 63 50 43 47 41 56 75 177 227 230 225 240 241 243 273 285 287 195 182
179 188 181 177 209 177 193 194 173 188 192 168 106 228 232 54 85 129 175 118 119 115 103 78 67 62 54 48 49 57 53 61 67 82 146 324 348 2 19 35 23 335 353 186
188 160 90 186 253 157 170 196 71 110 52 227 194 243 275 205 226 199 169 155 130 114 100 89 77 67 64 62 53 53 64 63 59 87 99 82 52 48 55 46 47 359 353 343
167 111 151 112 209 171 215 141 152 224 173 226 211 257 246 208 188 170 164 155 132 129 113 93 83 82 78 69 69 63 63 65 62 68 65 67 63 61 52 43 29 5 342 327
143 98 119 157 211 179 157 183 210 219 193 205 224 226 36 244 163 165 160 153 149 141 131 121 109 94 87 80 74 68 62 59 56 55 56 59 54 50 54 48 34 14 357 0
167 109 147 198 53 353 265 213 184 184 196 243 66 254 97 115 154 157 153 152 144 144 138 132 120 110 94 75 68 65 61 60 54 55 53 51 50 44 45 41 29 21 11 5
175 157 106 74 246 208 226 202 214 220 43 193 177 237 142 151 159 153 158 158 160 156 148 145 136 116 99 89 84 75 61 61 57 59 60 56 48 44 38 31 30 25 14 6
137 129 198 205 218 144 204 200 197 203 189 214 222 236 167 170 171 173 172 169 163 166 160 150 137 117 106 108 89 84 75 59 60 58 58 52 43 38 32 24 20 24 14 11
174 187 163 75 57 5 191 190 183 199 223 215 236 235 235 187 186 191 177 171 170 173 173 169 149 137 131 110 96 87 73 61 59 67 59 48 38 32 26 19 3 10 359 0
189 154 116 121 104 76 305 208 203 214 226 234 240 249 81 171 193 186 185 180 184 181 175 155 144 135 118 105 96 90 77 62 55 58 56 40 31 20 4 328 353 358 352 349
159 135 151 199 131 98 270 219 205 216 226 229 230 236 168 173 189 199 194 190 188 174 164 157 149 133 122 106 89 78 70 59 59 54 40 31 12 3 353 351 359 360 352 343
129 109 66 120 149 209 260 17 216 212 221 224 248 238 215 189 199 223 201 179 179 165 155 147 138 126 115 109 88 84 57 63 60 50 40 21 358 350 350 354 350 346 344 339
110 104 121 173 200 329 190 191 166 180 245 223 229 225 187 117 116 193 165 166 152 148 141 130 113 115 107 89 79 87 85 82 63 44 25 2 354 342 343 340 337 332 327 322
173 166 163 175 191 218 72 134 132 155 270 191 213 228 198 144 214 194 143 121 124 124 122 124 119 111 104 78 71 85 70 71 59 24 355 340 341 333 327 324 321 316 303 292
170 158 197 173 228 278 145 153 173 176 241 354 18 143 146 183 237 124 130 124 124 123 122 122 115 101 93 79 90 95 94 65 21 354 335 337 343 323 309 308 303 301 297 296
166 177 186 187 210 248 133 126 189 124 93 141 134 140 146 121 121 130 128 126 126 123 120 110 113 104 94 67 75 92 80 26 15 354 332 328 319 320 314 311 306 304 297 297
204 208 172 197 214 104 184 46 93 71 143 199 155 156 141 136 143 139 136 132 131 126 116 101 121 120 104 77 54 74 41 14 3 332 324 324 321 305 300 304 298 296 295 294
224 88 227 126 191 174 212 194 231 207 244 106 137 152 153 146 146 140 132 123 122 126 128 132 134 129 120 81 71 57 26 14 351 341 336 333 327 325 311 306 293 290 294 290
133 148 164 272 167 309 247 242 204 180 166 134 121 153 158 143 144 140 137 137 139 138 132 132 130 127 125 97 71 45 29 18 1 341 325 317 310 316 306 290 292 285 279 276
185 167 190 232 160 208 134 199 186 184 189 172 153 138 112 154 146 142 142 140 143 146 145 142 141 149 144 116 59 63 46 33 1 319 310 317 305 305 298 300 300 288 285 286